This is the latest recevied weather packets stored in our database for station/object N7CW. If no packets are shown the sender has not sent any weather packets the latest 10 day(s).
| Time | Temp. | Humidity | Pressure | Rain* | Wind** | Luminosity | Snow |
|---|---|---|---|---|---|---|---|
| 1777827890 | 20.56° C | 36% | 1017.7 hPa | 0 mm | - | 697 W/m² | - |
| 1777827582 | 21.67° C | 35% | 1017.4 hPa | 0 mm | - | 713 W/m² | - |
| 1777827280 | 21.11° C | 35% | 1017.7 hPa | 0 mm | - | 667 W/m² | - |
| 1777826976 | 20.56° C | 36% | 1017.4 hPa | 0 mm | - | 658 W/m² | - |
| 1777826673 | 20.56° C | 36% | 1017.7 hPa | 0 mm | - | 655 W/m² | - |
| 1777826370 | 20.56° C | 38% | 1017.8 hPa | 0 mm | - | 707 W/m² | - |
| 1777826067 | 20° C | 38% | 1017.9 hPa | 0 mm | - | 415 W/m² | - |
| 1777825764 | 20° C | 38% | 1017.8 hPa | 0 mm | - | 324 W/m² | - |
| 1777825462 | 20° C | 38% | 1017.8 hPa | 0 mm | - | 239 W/m² | - |
| 1777825158 | 18.89° C | 39% | 1017.8 hPa | 0 mm | - | 262 W/m² | - |
| 1777824855 | 20° C | 38% | 1017.7 hPa | 0 mm | - | 179 W/m² | - |
| 1777824551 | 20.56° C | 37% | 1017.9 hPa | 0 mm | - | 558 W/m² | - |
| 1777824248 | 20° C | 38% | 1018 hPa | 0 mm | - | 524 W/m² | - |
| 1777823944 | 20° C | 38% | 1017.9 hPa | 0 mm | - | 499 W/m² | - |
| 1777823641 | 19.44° C | 39% | 1017.9 hPa | 0 mm | - | 483 W/m² | - |
| 1777823337 | 20° C | 38% | 1017.7 hPa | 0 mm | - | 470 W/m² | - |
| 1777823035 | 20° C | 39% | 1017.9 hPa | 0 mm | - | 460 W/m² | - |
| 1777822733 | 19.44° C | 39% | 1018 hPa | 0 mm | - | 439 W/m² | - |
| 1777822431 | 18.89° C | 39% | 1017.9 hPa | 0 mm | - | 426 W/m² | - |
| 1777822128 | 18.89° C | 39% | 1017.9 hPa | 0 mm | - | 413 W/m² | - |
| 1777821826 | 18.89° C | 38% | 1018.2 hPa | 0 mm | - | 394 W/m² | - |
| 1777821523 | 19.44° C | 39% | 1018.1 hPa | 0 mm | - | 375 W/m² | - |
| 1777821221 | 18.89° C | 39% | 1018.1 hPa | 0 mm | - | 354 W/m² | - |
| 1777820917 | 18.89° C | 39% | 1018 hPa | 0 mm | - | 362 W/m² | - |
| 1777820613 | 18.33° C | 40% | 1018 hPa | 0 mm | - | 328 W/m² | - |
* Rain latest hour (hover to see other rain measurements)
** Current wind speed in m/s (hover to see current wind gust speed)